Simultaneous Nadir Overpasses (SNOs) Predictions

Prediction of SNOs between TERRA and METOP-C Satellite Orbit:

Table of predicted SNOs for the next 14.0 days since TLE Epoch: 2/5/2022
Index Date (TERRA) Time (TERRA) Lat,Lon (TERRA) SZA (TERRA ) Date (METOP-C) Time (METOP-C) Lat,Lon (METOP-C) SZA (METOP-C ) Distance(km) Time Diff (sec)
1 02/06/2022 06:58:14 -81.20, -61.90 81.34 02/06/2022 06:57:31 -81.20, -61.96 81.36 0.96 43
2 02/06/2022 07:47:39 81.22, 106.18 98.72 02/06/2022 07:48:09 81.22, 106.19 98.73 0.56 30
3 02/09/2022 02:32:24 -81.21, 4.70 82.20 02/09/2022 02:31:53 -81.20, 4.57 82.23 2.31 31
4 02/09/2022 03:21:50 81.21, 172.39 97.80 02/09/2022 03:22:32 81.21, 172.26 97.81 2.16 42
5 02/11/2022 22:06:34 -81.21, 71.19 83.11 02/11/2022 22:06:15 -81.20, 71.05 83.13 2.42 19
6 02/11/2022 22:56:00 81.21,-121.15 96.89 02/11/2022 22:56:54 81.21,-121.32 96.89 2.92 54
7 02/14/2022 17:40:43 -81.21, 137.56 84.06 02/14/2022 17:40:36 -81.20, 137.49 84.07 1.20 7
8 02/14/2022 18:30:08 81.23, -54.43 95.98 02/14/2022 18:31:14 81.22, -54.56 95.99 2.33 66
9 02/17/2022 12:25:26 81.19, 36.18 94.96 02/17/2022 12:24:17 81.19, 36.14 94.93 0.73 69



Historial Predications of SNOs between TERRA and METOP-C
